"2009-05-04 00:00:00",855680,5.491,137.3,3.081,0.713,10.37,104.4647,10.7,11.75,55.99,0,110.2,13.33,11.49,99.3
"2009-05-04 00:00:30",855681,6.257,151.6,9.99,1.291,12.71,104.4641,10.7,11.82,56.03,0,110.2,13.33,11.49,113.6
"2009-05-04 00:01:00",855682,6.807,152.9,7.267,1.254,13.23,104.4611,10.69,11.8,56.13,0,110.2,13.33,11.48,114.9
"2009-05-04 00:01:30",855683,5.979,148,6.765,0.981,11.64,104.4605,10.69,11.83,56.37,0,110.2,13.33,11.48,110.0
"2009-05-04 00:02:00",855684,5.584,147.7,3.841,0.459,10.86,104.4599,10.69,11.76,56.38,0,110.2,13.33,11.48,109.7
"2009-05-04 00:02:30",855685,7.143,152.3,6.329,1.222,14.62,104.4594,10.69,11.94,56.4,0,110.2,13.33,11.48,114.3
"2009-05-04 00:03:00",855686,7.314,153.5,6.759,1.036,14.65,104.4583,10.69,11.93,56.44,0,110.2,13.33,11.48,115.5
"2009-05-04 00:03:30",855687,6.266,146.1,6.456,0.958,11.38,104.4574,10.68,11.76,56.46,0,110.2,13.33,11.47,108.1
"2009-05-04 00:04:00",855688,6.914,150.6,7.888,1.427,12.28,104.4563,10.68,11.75,56.32,0,110.2,13.33,11.47,112.6
"2009-05-04 00:04:30",855689,6.552,146.7,5.37,1.121,11.69,104.4529,10.67,11.82,56.51,0,110.2,13.33,11.46,108.7
"2009-05-04 00:05:00",855690,6.511,142.9,5.382,0.946,11.16,104.4501,10.67,11.79,56.49,0,110.2,13.33,11.45,104.9
"2009-05-04 00:05:30",855691,7.029,147.8,7.886,1.295,13.13,104.4377,10.63,11.88,56.71,0,110.2,13.33,11.42,109.8
"2009-05-04 00:06:00",855692,8.04,147,6.676,1.241,13.94,104.4334,10.62,11.89,56.58,0,110.2,13.33,11.41,109.0
"2009-05-04 00:06:30",855693,7.7,145.5,6.543,1.265,13.93,104.4332,10.62,11.95,56.52,0,110.2,13.33,11.41,107.5
"2009-05-04 00:07:00",855694,7.538,146,6.335,1.323,12.79,104.4332,10.62,11.76,56.39,0,110.2,13.33,11.41,108.0
"2009-05-04 00:07:30",855695,6.149,137.8,5.115,0.667,11.3,104.4323,10.62,11.87,56.52,0,110.2,13.37,11.41,99.8
"2009-05-04 00:08:00",855696,7.213,141.7,6.286,1.259,12.05,104.4239,10.6,11.69,56.39,0,110.2,13.33,11.39,103.7
"2009-05-04 00:08:30",855697,7.342,140.7,6.962,1.434,12.66,104.4072,10.56,11.79,56.69,0,110.2,13.33,11.34,102.7
"2009-05-04 00:09:00",855698,7.518,147.9,8.24,1.449,13.19,104.402,10.54,11.77,56.9,0,110.2,13.33,11.33,109.9
"2009-05-04 00:09:30",855699,7.722,153.2,5.41,1.207,14.44,104.4046,10.55,11.79,57.21,0,110.2,13.33,11.34,115.2
"2009-05-04 00:10:00",855700,7.785,153.2,5.267,1.141,14.22,104.4042,10.55,11.78,57.37,0,110.2,13.33,11.34,115.2
"2009-05-04 00:10:30",855701,7.159,149.9,4.854,1.227,12.33,104.3944,10.52,11.69,57.42,0,110.2,13.33,11.31,111.9
"2009-05-04 00:11:00",855702,7.008,148.3,6.006,1.17,12.45,104.3801,10.49,11.7,57.53,0,110.2,13.33,11.27,110.3
"2009-05-04 00:11:30",855703,7.141,151.6,9,1.187,12.49,104.3814,10.49,11.71,57.58,0,110.2,13.33,11.28,113.6
"2009-05-04 00:12:00",855704,6.658,151.3,5.65,1.11,11.67,104.3858,10.5,11.56,57.45,0,110.2,13.33,11.29,113.3
"2009-05-04 00:12:30",855705,5.746,145.1,4.314,0.71,10.87,104.3902,10.51,11.65,57.62,0,110.2,13.33,11.30,107.1
"2009-05-04 00:13:00",855706,7.855,156.8,5.417,1.031,14.23,104.3864,10.5,11.75,57.71,0,110.2,13.33,11.29,118.8
"2009-05-04 00:13:30",855707,7.464,157.6,6.348,1.267,14.44,104.3813,10.49,11.79,57.78,0,110.2,13.34,11.28,119.6
"2009-05-04 00:14:00",855708,7.468,154.6,7.112,1.371,13.79,104.3737,10.47,11.69,57.65,0,110.2,13.34,11.26,116.6
"2009-05-04 00:14:30",855709,7.288,153.2,6.287,1.275,12.33,104.3772,10.48,11.59,57.53,0,110.2,13.34,11.27,115.2
"2009-05-04 00:15:00",855710,7.202,151.8,7.004,1.336,12.39,104.375,10.47,11.62,57.58,0,110.2,13.34,11.26,113.8
"2009-05-04 00:15:30",855711,6.164,149.2,2.01,0.144,10.45,104.372,10.47,11.49,57.45,0,110.2,13.34,11.25,111.2
"2009-05-04 00:16:00",855712,7.127,156,7.86,1.122,12.47,104.3681,10.46,11.66,57.64,0,110.2,13.34,11.24,118.0
"2009-05-04 00:16:30",855713,7.227,157,6.395,1.335,12.44,104.367,10.45,11.57,57.62,0,110.2,13.34,11.24,119.0
"2009-05-04 00:17:00",855714,7.919,155.2,7.576,1.334,14.13,104.3672,10.45,11.66,57.76,0,110.2,13.34,11.24,117.2
"2009-05-04 00:17:30",855715,7.648,152.4,6.039,1.404,13.39,104.367,10.45,11.65,57.82,0,110.2,13.34,11.24,114.4
"2009-05-04 00:18:00",855716,7.234,156.3,6.525,1.23,12.37,104.367,10.45,11.63,57.99,0,110.2,13.34,11.24,118.3
"2009-05-04 00:18:30",855717,6.928,155.3,7.649,1.098,11.91,104.367,10.45,11.62,58.15,0,110.2,13.35,11.24,117.3
"2009-05-04 00:19:00",855718,6.522,155.2,3.462,0.913,10.81,104.367,10.45,11.46,58.16,0,110.2,13.34,11.24,117.2
"2009-05-04 00:19:30",855719,6.906,150.6,7.043,1.009,11.24,104.367,10.45,11.48,58.18,0,110.2,13.34,11.24,112.6
"2009-05-04 00:20:00",855720,8.62,151.2,4.846,1.384,14.18,104.367,10.45,11.66,58.17,0,110.2,13.34,11.24,113.2
"2009-05-04 00:20:30",855721,8.13,153.1,7.743,1.354,13.62,104.3706,10.46,11.7,58.12,0,110.2,13.35,11.25,115.1
"2009-05-04 00:21:00",855722,8.3,150.7,7.113,1.292,13.72,104.3726,10.47,11.66,58.13,0,110.2,13.35,11.26,112.7
"2009-05-04 00:21:30",855723,8.75,150.2,6.277,1.291,13.51,104.3782,10.48,11.64,58.1,0,110.2,13.35,11.27,112.2
"2009-05-04 00:22:00",855724,7.448,146.9,5.471,0.983,11.89,104.3813,10.49,11.6,58.14,0,110.2,13.35,11.28,108.9
"2009-05-04 00:22:30",855725,6.731,140,2.652,0.65,10.49,104.383,10.49,11.47,57.78,0,110.2,13.35,11.28,102.0
"2009-05-04 00:23:00",855726,6.664,146.1,6.989,1.051,12.07,104.3828,10.49,11.64,57.82,0,110.2,13.35,11.28,108.1
"2009-05-04 00:23:30",855727,7.286,149.4,6.681,1.369,13.83,104.383,10.49,11.56,57.67,0,110.2,13.35,11.28,111.4
"2009-05-04 00:24:00",855728,6.451,147.6,8.18,1.331,12.66,104.3819,10.49,11.56,57.78,0,110.2,13.35,11.28,109.6
"2009-05-04 00:24:30",855729,7.104,153.9,8.82,1.234,14.28,104.3847,10.5,11.71,58.08,0,110.2,13.35,11.29,115.9
"2009-05-04 00:25:00",855730,6.137,150.6,5.549,1.324,13.18,104.3901,10.51,11.67,58.13,0,110.2,13.34,11.30,112.6
"2009-05-04 00:25:30",855731,5.301,143.9,4.88,0.688,10.8,104.3923,10.52,11.6,58.33,0,110.1,13.38,11.31,105.9
"2009-05-04 00:26:00",855732,5.83,145.3,4.6,0.711,10.81,104.3938,10.52,11.49,58.5,0,110.2,13.34,11.31,107.3
"2009-05-04 00:26:30",855733,6.26,150,4.808,0.963,11.74,104.3969,10.53,11.53,58.97,0,110.2,13.34,11.32,112.0
"2009-05-04 00:27:00",855734,7.244,155.7,7.671,1.323,13.62,104.3991,10.53,11.63,58.98,0,110.2,13.34,11.32,117.7
"2009-05-04 00:27:30",855735,7.681,151.5,6.162,1.332,13.65,104.4005,10.54,11.65,58.38,0,110.2,13.34,11.33,113.5
"2009-05-04 00:28:00",855736,7.669,150.1,8.1,1.297,14.3,104.4008,10.54,11.78,57.57,0,110.2,13.34,11.33,112.1
"2009-05-04 00:28:30",855737,7.794,149.5,6.516,1.214,14.57,104.4008,10.54,11.75,56.74,0,110.2,13.34,11.33,111.5
"2009-05-04 00:29:00",855738,5.924,155.7,9.91,1.371,12.22,104.4008,10.54,11.63,56.61,0,110.2,13.34,11.33,117.7
"2009-05-04 00:29:30",855739,3.869,160.2,7.708,0.314,10.37,104.4008,10.54,11.5,55.68,0,110.2,13.38,11.33,122.2
"2009-05-04 00:30:00",855740,3.753,156,4.863,0.781,10.35,104.4008,10.54,11.54,55.46,0,110.2,13.34,11.33,118.0
"2009-05-04 00:30:30",855741,4.903,167.4,8.81,1.157,12.87,104.4008,10.54,11.63,55.44,0,110.2,13.35,11.33,129.4
"2009-05-04 00:31:00",855742,4.036,148.8,6.218,0.177,10.49,104.4008,10.54,11.58,55,0,110.2,13.39,11.33,110.8
"2009-05-04 00:31:30",855743,4.754,151.8,10.36,1.525,12.86,104.4008,10.54,11.61,54.83,0,110.2,13.35,11.33,113.8
"2009-05-04 00:32:00",855744,3.346,166.5,11.17,1.058,11.26,104.4008,10.54,11.65,55.13,0,110.2,13.35,11.33,128.5
"2009-05-04 00:32:30",855745,5.178,176.4,11.9,1.224,14.41,104.4008,10.54,11.76,55.31,0,110.2,13.35,11.33,138.4
"2009-05-04 00:33:00",855746,5.322,159.4,10.58,1.446,13.21,104.4008,10.54,11.74,55.48,0,110.2,13.35,11.33,121.4
"2009-05-04 00:33:30",855747,4.062,146.7,2.115,0.546,10.09,104.4008,10.54,11.54,56.26,0,110.2,13.39,11.33,108.7
"2009-05-04 00:34:00",855748,3.992,144.3,6.352,1.342,12.12,104.4019,10.54,11.64,58.1,0,110.1,13.35,11.33,106.3
"2009-05-04 00:34:30",855749,3.426,150.3,6.215,0.864,10.79,104.4045,10.55,11.66,59.19,0,110.2,13.35,11.34,112.3
"2009-05-04 00:35:00",855750,4.927,161.3,6.279,1.31,12.34,104.407,10.56,11.75,59.13,0,110.1,13.35,11.34,123.3
"2009-05-04 00:35:30",855751,4.441,147.4,10.07,1.21,11.86,104.4098,10.56,11.62,58.85,0,110.2,13.35,11.35,109.4
"2009-05-04 00:36:00",855752,4.22,151.1,7.658,0.926,12.18,104.4138,10.57,11.7,59.88,0,110.2,13.35,11.36,113.1
"2009-05-04 00:36:30",855753,5.216,156.7,6.41,1.193,12.61,104.4135,10.57,11.81,59.22,0,110.2,13.35,11.36,118.7
"2009-05-04 00:37:00",855754,6.403,157.4,7.138,1.214,13.5,104.4146,10.57,11.77,58.53,0,110.2,13.35,11.36,119.4
"2009-05-04 00:37:30",855755,4.328,149.5,2.064,0.191,10.44,104.4118,10.57,11.56,58.2,0,110.2,13.39,11.36,111.5
"2009-05-04 00:38:00",855756,4.699,150.6,5.932,1.118,10.74,104.4124,10.57,11.57,58.18,0,110.2,13.35,11.36,112.6
"2009-05-04 00:38:30",855757,4.341,151.7,5.682,0.957,11.55,104.4104,10.56,11.75,58.62,0,110.2,13.35,11.35,113.7
"2009-05-04 00:39:00",855758,5.223,160.1,6.827,1.317,13.38,104.4104,10.56,11.79,58.85,0,110.2,13.35,11.35,122.1
"2009-05-04 00:39:30",855759,3.51,150.7,5.993,1.123,10.64,104.4079,10.56,11.67,58.99,0,110.2,13.35,11.35,112.7
"2009-05-04 00:40:00",855760,3.171,143.9,1.696,0.181,10.15,104.4056,10.55,11.59,59.09,0,110.2,13.39,11.34,105.9
"2009-05-04 00:40:30",855761,4.308,148.1,8.91,1.213,12.47,104.4039,10.55,11.73,59.38,0,110.2,13.36,11.34,110.1
"2009-05-04 00:41:00",855762,3.828,147.8,8.44,1.209,12.54,104.4048,10.55,11.75,59.66,0,110.1,13.36,11.34,109.8
"2009-05-04 00:41:30",855763,3.856,145.7,7.731,1.319,12.84,104.4022,10.54,11.8,60.04,0,110.1,13.35,11.33,107.7
"2009-05-04 00:42:00",855764,3.166,141.8,5.74,0.194,10.24,104.4011,10.54,11.59,60.42,0,110.2,13.39,11.33,103.8
"2009-05-04 00:42:30",855765,4.781,147.3,6.575,1.336,11.67,104.4011,10.54,11.77,60.38,0,110.2,13.35,11.33,109.3
"2009-05-04 00:43:00",855766,6.302,155.6,5.665,1.14,14.06,104.4014,10.54,11.74,59.21,0,110.2,13.35,11.33,117.6
"2009-05-04 00:43:30",855767,5.367,152.5,7.123,1.292,12.59,104.4026,10.54,11.73,58.65,0,110.2,13.35,11.33,114.5
"2009-05-04 00:44:00",855768,4.254,145.4,1.043,0.058,10.11,104.402,10.54,11.63,58.34,0,110.2,13.39,11.33,107.4
"2009-05-04 00:44:30",855769,5.402,156.8,6.637,1.425,12.38,104.4014,10.54,11.67,58.3,0,110.1,13.35,11.33,118.8
"2009-05-04 00:45:00",855770,5.164,157.3,7.514,1.312,13.04,104.4014,10.54,11.83,58.41,0,110.2,13.35,11.33,119.3
"2009-05-04 00:45:30",855771,5.19,152.8,10.84,1.314,12.53,104.402,10.54,11.63,58.25,0,110.2,13.35,11.33,114.8
"2009-05-04 00:46:00",855772,3.878,146.5,1.413,0.103,10.35,104.4032,10.55,11.59,58.2,0,110.1,13.39,11.33,108.5
"2009-05-04 00:46:30",855773,4.966,155.5,8.1,1.348,12.78,104.399,10.53,11.68,58.21,0,110.1,13.35,11.32,117.5
"2009-05-04 00:47:00",855774,5.575,157.9,5.94,1.209,13.74,104.3939,10.52,11.77,58.35,0,110.2,13.35,11.31,119.9
"2009-05-04 00:47:30",855775,3.747,149.2,2.279,0.195,10.35,104.3923,10.52,11.62,58.21,0,110.2,13.36,11.31,111.2
"2009-05-04 00:48:00",855776,3.641,152.4,2.604,0.134,10.1,104.388,10.51,11.59,58.11,0,110.2,13.39,11.30,114.4
"2009-05-04 00:48:30",855777,4.378,155.3,6.11,1.333,12.32,104.3895,10.51,11.66,58.12,0,110.1,13.36,11.30,117.3
"2009-05-04 00:49:00",855778,3.78,160,5.793,0.983,11.84,104.3864,10.5,11.8,58.19,0,110.1,13.36,11.29,122.0
"2009-05-04 00:49:30",855779,5.333,158.3,7.966,1.22,11.71,104.3794,10.48,11.54,57.71,0,110.2,13.36,11.27,120.3
"2009-05-04 00:50:00",855780,5.67,159.1,6.12,1.292,12.97,104.3749,10.47,11.7,57.54,0,110.1,13.36,11.26,121.1
"2009-05-04 00:50:30",855781,4.751,159.2,6.92,1.018,11.58,104.3752,10.47,11.62,57.35,0,110.1,13.36,11.26,121.2
"2009-05-04 00:51:00",855782,5.931,169.3,5.897,1.176,13.85,104.3761,10.48,11.78,57.37,0,110.1,13.36,11.26,131.3
"2009-05-04 00:51:30",855783,4.401,157.8,5.452,0.872,10.51,104.3758,10.48,11.53,57.03,0,110.1,13.36,11.26,119.8
"2009-05-04 00:52:00",855784,5.261,163,6.315,1.26,11.87,104.3758,10.48,11.56,57.1,0,110.1,13.36,11.26,125.0
"2009-05-04 00:52:30",855785,5.196,163.8,6.279,1.268,12.01,104.3776,10.48,11.63,57.36,0,110.1,13.36,11.27,125.8
"2009-05-04 00:53:00",855786,4.363,156.7,1.068,0.236,10.39,104.377,10.48,11.55,57.39,0,110.1,13.36,11.27,118.7
"2009-05-04 00:53:30",855787,5.547,165,8.23,1.285,12.78,104.375,10.47,11.59,57.44,0,110.1,13.36,11.26,127.0
"2009-05-04 00:54:00",855788,5.065,161.4,6.076,1.285,12.8,104.3731,10.47,11.68,57.49,0,110.1,13.36,11.26,123.4
"2009-05-04 00:54:30",855789,5.003,160.3,8.8,1.264,12.03,104.3697,10.46,11.63,57.4,0,110.2,13.36,11.25,122.3
"2009-05-04 00:55:00",855790,6.119,169.2,7.071,1.266,13.9,104.3679,10.46,11.75,57.44,0,110.1,13.36,11.24,131.2
"2009-05-04 00:55:30",855791,4.432,156.3,6.505,1.173,10.74,104.3571,10.43,11.48,57.21,0,110.1,13.36,11.22,118.3
"2009-05-04 00:56:00",855792,4.877,158.9,6.021,1.298,12.08,104.3531,10.42,11.61,57.31,0,110.1,13.36,11.21,120.9
"2009-05-04 00:56:30",855793,4.119,149,5.186,0.782,10.93,104.3514,10.41,11.61,57.39,0,110.1,13.36,11.20,111.0
"2009-05-04 00:57:00",855794,3.643,145.6,2.318,0.175,9.97,104.3543,10.42,11.46,57.15,0,110.1,13.4,11.21,107.6
"2009-05-04 00:57:30",855795,5.108,153.9,7.719,1.318,12.69,104.3549,10.42,11.55,57.25,0,110.1,13.36,11.21,115.9
"2009-05-04 00:58:00",855796,5.094,146.2,5.727,1.063,12.1,104.3572,10.43,11.62,57.46,0,110.1,13.36,11.22,108.2
"2009-05-04 00:58:30",855797,5.583,146.9,7.357,1.353,13.21,104.3599,10.43,11.59,57.47,0,110.1,13.36,11.22,108.9
"2009-05-04 00:59:00",855798,5.198,141.6,6.44,1.511,12.44,104.359,10.43,11.65,57.65,0,110.1,13.35,11.22,103.6
"2009-05-04 00:59:30",855799,4.605,140.7,5.854,1.069,11.3,104.3614,10.44,11.57,57.55,0,110.1,13.35,11.23,102.7
"2009-05-04 01:00:00",855800,4.846,141.4,6.973,1.433,11.96,104.3637,10.44,11.56,57.6,0,110.1,13.35,11.23,103.4
"2009-05-04 01:00:30",855801,3.546,143.3,2.237,0.395,9.95,104.3592,10.43,11.48,57.38,0,110.1,13.39,11.22,105.3
"2009-05-04 01:01:00",855802,4.126,148.7,1.722,0.133,9.97,104.3553,10.42,11.41,57.71,0,110.1,13.39,11.21,110.7
"2009-05-04 01:01:30",855803,5.485,150.4,8.77,1.311,12.97,104.3496,10.41,11.58,58.24,0,110.1,13.36,11.20,112.4
"2009-05-04 01:02:00",855804,6.319,151.7,6.631,1.316,13.53,104.3482,10.4,11.59,58.19,0,110.1,13.36,11.19,113.7
"2009-05-04 01:02:30",855805,6.752,152.1,6.083,1.211,14.41,104.3429,10.39,11.68,58.43,0,110.1,13.36,11.18,114.1
"2009-05-04 01:03:00",855806,6.946,153.1,7.274,1.256,13.69,104.3361,10.37,11.65,58.49,0,110.1,13.36,11.16,115.1
"2009-05-04 01:03:30",855807,5.973,144.9,5.738,1.03,11.2,104.3316,10.36,11.51,58.36,0,110.1,13.37,11.15,106.9
"2009-05-04 01:04:00",855808,6.233,147,6.373,1.272,11.41,104.3313,10.36,11.4,58.22,0,110.1,13.37,11.15,109.0
"2009-05-04 01:04:30",855809,5.391,144.9,0.888,0.083,10.05,104.3328,10.37,11.38,58.27,0,110.1,13.4,11.15,106.9
"2009-05-04 01:05:00",855810,5.307,147.6,1.438,0.158,10.39,104.3343,10.37,11.43,58.5,0,110.1,13.4,11.16,109.6
"2009-05-04 01:05:30",855811,7.022,157.7,6.575,1.259,14.29,104.3337,10.37,11.62,58.66,0,110.1,13.37,11.16,119.7
"2009-05-04 01:06:00",855812,7.423,160.6,4.133,0.977,15.25,104.3337,10.37,11.59,58.58,0,110.1,13.37,11.16,122.6
"2009-05-04 01:06:30",855813,7.047,159.2,6.648,1.269,13.83,104.3315,10.36,11.56,58.65,0,110.1,13.37,11.15,121.2
"2009-05-04 01:07:00",855814,6.2,158.8,6.43,1.062,11.68,104.3272,10.35,11.56,58.96,0,110.1,13.37,11.14,120.8
"2009-05-04 01:07:30",855815,6.1,159.1,5.626,1.197,10.77,104.3222,10.34,11.35,58.93,0,110.1,13.37,11.13,121.1
"2009-05-04 01:08:00",855816,5.242,156.7,0.79,0.128,9.91,104.3109,10.31,11.34,58.95,0,110.2,13.4,11.10,118.7
"2009-05-04 01:08:30",855817,5.708,159.5,4.662,1.036,11,104.3035,10.29,11.34,58.83,0,110.1,13.37,11.08,121.5
"2009-05-04 01:09:00",855818,7.136,166.3,6.285,1.234,14.17,104.2998,10.28,11.58,58.97,0,110.1,13.37,11.07,128.3
"2009-05-04 01:09:30",855819,7.028,164.3,6.223,1.246,14.66,104.3001,10.28,11.53,58.62,0,110.1,13.37,11.07,126.3
"2009-05-04 01:10:00",855820,5.686,153.8,6.087,1.097,11.65,104.3004,10.28,11.43,58.44,0,110.1,13.37,11.07,115.8
"2009-05-04 01:10:30",855821,6.408,160.9,7.257,1.289,13.13,104.3007,10.28,11.51,58.71,0,110.1,13.37,11.07,122.9
"2009-05-04 01:11:00",855822,5.822,159.6,6.29,1.224,11.81,104.3007,10.28,11.43,58.59,0,110.1,13.37,11.07,121.6
"2009-05-04 01:11:30",855823,4.873,154.2,1.381,0.075,9.72,104.3007,10.28,11.29,58.34,0,110.1,13.41,11.07,116.2
"2009-05-04 01:12:00",855824,4.866,156.4,1.761,0.069,10.12,104.3007,10.28,11.29,58.35,0,110.1,13.41,11.07,118.4
"2009-05-04 01:12:30",855825,5.066,158.6,4.371,0.812,11.18,104.3007,10.28,11.4,58.45,0,110.1,13.37,11.07,120.6
"2009-05-04 01:13:00",855826,6.34,166.9,6.966,1.249,14.27,104.3007,10.28,11.53,58.61,0,110.1,13.37,11.07,128.9
"2009-05-04 01:13:30",855827,5.694,162.7,6.958,1.241,12.92,104.3007,10.28,11.38,58.41,0,110.1,13.37,11.07,124.7
"2009-05-04 01:14:00",855828,6.505,164.1,6.619,1.161,13.95,104.3007,10.28,11.5,58.46,0,110.1,13.37,11.07,126.1
"2009-05-04 01:14:30",855829,5.902,159.7,6.543,1.283,12.41,104.3007,10.28,11.41,58.33,0,110.1,13.37,11.07,121.7
"2009-05-04 01:15:00",855830,4.666,151.7,0.994,0.072,9.64,104.3007,10.28,11.28,58.2,0,110.1,13.4,11.07,113.7
"2009-05-04 01:15:30",855831,4.801,151.2,0.88,0.051,9.58,104.3007,10.28,11.29,58.15,0,110.1,13.4,11.07,113.2
"2009-05-04 01:16:00",855832,5.064,151.6,2.467,0.679,10.14,104.3007,10.28,11.28,58.07,0,110.1,13.36,11.07,113.6
"2009-05-04 01:16:30",855833,6.192,159.2,6.877,1.359,13.58,104.3007,10.28,11.54,58.2,0,110.1,13.36,11.07,121.2
"2009-05-04 01:17:00",855834,6.417,157.6,7.043,1.25,13.13,104.3007,10.28,11.52,58.13,0,110.1,13.37,11.07,119.6
"2009-05-04 01:17:30",855835,7.794,162.9,3.784,0.793,14.65,104.2996,10.28,11.44,57.89,0,110.1,13.36,11.07,124.9
"2009-05-04 01:18:00",855836,6.991,159.2,6.545,1.288,13.37,104.2985,10.28,11.53,57.97,0,110.2,13.36,11.07,121.2
"2009-05-04 01:18:30",855837,5.828,153.1,4.748,0.949,10.66,104.2939,10.27,11.34,57.74,0,110.1,13.36,11.05,115.1
"2009-05-04 01:19:00",855838,5.365,150.3,0.928,0.06,9.73,104.292,10.26,11.26,57.62,0,110.1,13.4,11.05,112.3
"2009-05-04 01:19:30",855839,6.22,152.9,6.095,1.306,12.16,104.2903,10.26,11.42,57.73,0,110.1,13.37,11.04,114.9
"2009-05-04 01:20:00",855840,6.418,151.2,6.005,1.301,11.75,104.2891,10.25,11.38,57.73,0,110.1,13.37,11.04,113.2
"2009-05-04 01:20:30",855841,7.599,156.6,6.887,1.244,14.25,104.2869,10.25,11.41,57.82,0,110.1,13.37,11.04,118.6
"2009-05-04 01:21:00",855842,8,156.4,6.292,1.119,14.34,104.2829,10.24,11.54,58,0,110.1,13.37,11.03,118.4
"2009-05-04 01:21:30",855843,8.13,155.9,6.019,1.103,13.95,104.2784,10.23,11.48,58.03,0,110.1,13.37,11.01,117.9
"2009-05-04 01:22:00",855844,6.574,149.1,4.439,0.846,10.61,104.2714,10.21,11.25,57.88,0,110.1,13.37,11.00,111.1
"2009-05-04 01:22:30",855845,6.388,147.5,3.969,0.706,10.47,104.2699,10.2,11.3,57.98,0,110.1,13.37,10.99,109.5
"2009-05-04 01:23:00",855846,6.928,147.3,6.861,1.313,11.55,104.2671,10.2,11.3,57.92,0,110.1,13.37,10.98,109.3
"2009-05-04 01:23:30",855847,7.609,150.6,6.733,1.318,13.38,104.2668,10.2,11.36,58,0,110.1,13.37,10.98,112.6
"2009-05-04 01:24:00",855848,6.048,144.3,3.641,0.657,11.34,104.2668,10.2,11.4,58.12,0,110.1,13.37,10.98,106.3
"2009-05-04 01:24:30",855849,7.85,154.7,4.925,1.05,14.77,104.2668,10.2,11.5,58.29,0,110.1,13.37,10.98,116.7
"2009-05-04 01:25:00",855850,7.993,151,6.072,1.137,13.99,104.2668,10.2,11.47,58.5,0,110.1,13.37,10.98,113.0
"2009-05-04 01:25:30",855851,6.819,146.2,5.781,1.306,11.93,104.2668,10.2,11.3,58.42,0,110.1,13.37,10.98,108.2
"2009-05-04 01:26:00",855852,5.814,142.2,1.128,0.071,10.08,104.2668,10.2,11.23,58.56,0,110.1,13.41,10.98,104.2
"2009-05-04 01:26:30",855853,6.765,149,6.867,1.247,12.46,104.2668,10.2,11.35,58.91,0,110.1,13.37,10.98,111.0
"2009-05-04 01:27:00",855854,5.719,148.5,5.103,0.816,11.73,104.2668,10.2,11.41,58.81,0,110.1,13.37,10.98,110.5
"2009-05-04 01:27:30",855855,6.687,153.2,7.555,1.289,13.4,104.2668,10.2,11.27,58.12,0,110.1,13.37,10.98,115.2
"2009-05-04 01:28:00",855856,6.94,151.7,5.883,1.184,13.96,104.2663,10.2,11.46,58.19,0,110.1,13.37,10.98,113.7
"2009-05-04 01:28:30",855857,6.826,149,6.262,1.246,13.5,104.2652,10.19,11.46,58.48,0,110.1,13.37,10.98,111.0
"2009-05-04 01:29:00",855858,5.496,139.5,2.438,0.473,10.47,104.2623,10.18,11.27,58.56,0,110.1,13.41,10.97,101.5
"2009-05-04 01:29:30",855859,5.357,140.7,2.78,0.068,10.55,104.2578,10.17,11.32,58.61,0,110.1,13.41,10.96,102.7
"2009-05-04 01:30:00",855860,6.21,147.1,6.006,1.288,11.82,104.2578,10.17,11.25,58.43,0,110.1,13.37,10.96,109.1
"2009-05-04 01:30:30",855861,5.847,145.4,6.158,1.067,11.94,104.2567,10.17,11.31,58.14,0,110.1,13.37,10.96,107.4
"2009-05-04 01:31:00",855862,6.471,144,7.222,1.224,11.94,104.2564,10.17,11.2,57.9,0,110.1,13.37,10.96,106.0
"2009-05-04 01:31:30",855863,8.03,150.2,5.524,1.085,14.75,104.2524,10.16,11.5,58.33,0,110.1,13.37,10.95,112.2
"2009-05-04 01:32:00",855864,7.879,150.6,6.197,1.171,14.11,104.2508,10.16,11.45,58.47,0,110.1,13.37,10.94,112.6
"2009-05-04 01:32:30",855865,7.393,147.8,7.203,1.196,12.52,104.2491,10.15,11.3,58.31,0,110.1,13.37,10.94,109.8
"2009-05-04 01:33:00",855866,6.661,140,2.955,0.679,10.15,104.2477,10.15,11.29,58.23,0,110.1,13.37,10.94,102.0
"2009-05-04 01:33:30",855867,7.766,145.5,6.598,1.236,11.96,104.2417,10.13,11.2,58.14,0,110.1,13.37,10.92,107.5
"2009-05-04 01:34:00",855868,6.87,142,2.399,0.083,10.84,104.2355,10.12,11.26,58.27,0,110.1,13.4,10.90,104.0
"2009-05-04 01:34:30",855869,8.43,150.3,6.745,1.376,13.35,104.2338,10.11,11.4,58.52,0,110.1,13.37,10.90,112.3
"2009-05-04 01:35:00",855870,9.21,159.1,3.13,0.99,15.3,104.2335,10.11,11.49,58.81,0,110.1,13.37,10.90,121.1
"2009-05-04 01:35:30",855871,9.28,156.9,3.558,1.018,14.29,104.233,10.11,11.43,59.02,0,110.1,13.37,10.90,118.9
"2009-05-04 01:36:00",855872,7.07,150.8,5.615,1.067,10.61,104.233,10.11,11.15,58.87,0,110.1,13.37,10.90,112.8
"2009-05-04 01:36:30",855873,7.94,153.4,6.291,1.254,11.92,104.233,10.11,11.3,59.16,0,110.1,13.37,10.90,115.4
"2009-05-04 01:37:00",855874,7.933,148.7,3.585,0.754,10.21,104.233,10.11,11.22,59.2,0,110.1,13.41,10.90,110.7
"2009-05-04 01:37:30",855875,8.02,148.5,6.037,0.955,11.35,104.2333,10.11,11.22,59.53,0,110.1,13.37,10.90,110.5
"2009-05-04 01:38:00",855876,10.43,158.6,4.346,0.817,15.31,104.2307,10.1,11.45,60.18,0,110.1,13.37,10.89,120.6
"2009-05-04 01:38:30",855877,10.08,157.9,3.367,0.932,15.11,104.2211,10.08,11.46,60.56,0,110.1,13.38,10.87,119.9
"2009-05-04 01:39:00",855878,10.2,159.9,8.26,1.182,13.4,104.2028,10.03,11.37,60.7,0,110.1,13.37,10.82,121.9
"2009-05-04 01:39:30",855879,9.92,162.7,8.94,1.273,11.9,104.1994,10.02,11.28,61.21,0,110.1,13.37,10.81,124.7
"2009-05-04 01:40:00",855880,8.32,159.6,6.696,0.785,10.49,104.1991,10.02,11.23,61.5,0,110.1,13.37,10.81,121.6
"2009-05-04 01:40:30",855881,7.69,157.3,1.792,0.454,9.93,104.1918,10,11.09,61.66,0,110.1,13.41,10.79,119.3
"2009-05-04 01:41:00",855882,8.76,163.5,7.1,1.29,13.47,104.1704,9.95,11.34,61.95,0,110.1,13.38,10.74,125.5
"2009-05-04 01:41:30",855883,9.53,166.6,4.286,0.733,15.22,104.1664,9.94,11.35,61.94,0,110.1,13.38,10.73,128.6
"2009-05-04 01:42:00",855884,8.2,166.1,6.092,1.266,12.83,104.1616,9.93,11.2,61.99,0,110.1,13.38,10.71,128.1
"2009-05-04 01:42:30",855885,8.63,172.5,6.528,1.456,12.8,104.1499,9.9,11.24,62.43,0,110.1,13.38,10.68,134.5
"2009-05-04 01:43:00",855886,7.596,163.5,10.7,1.099,10.61,104.1361,9.86,10.98,61.92,0,110.1,13.37,10.65,125.5
"2009-05-04 01:43:30",855887,6.967,157.3,1.836,0.194,9.28,104.1265,9.84,10.95,62.14,0,110.1,13.41,10.62,119.3
"2009-05-04 01:44:00",855888,7.987,160.8,6.758,1.242,12.28,104.1036,9.78,11.09,62.32,0,110.1,13.38,10.57,122.8
"2009-05-04 01:44:30",855889,7.88,161.8,6.376,1.189,13.09,104.1037,9.78,11.15,62.08,0,110.1,13.38,10.57,123.8
"2009-05-04 01:45:00",855890,8.13,166.7,6.734,1.382,12.6,104.0913,9.75,11.08,61.6,0,110.1,13.38,10.53,128.7
"2009-05-04 01:45:30",855891,8.58,165.5,5.889,1.105,13.67,104.0792,9.72,11.11,61.28,0,110.1,13.38,10.50,127.5
"2009-05-04 01:46:00",855892,8.46,167.1,6.123,1.146,12.7,104.0731,9.7,11.03,61.19,0,110.1,13.38,10.49,129.1
"2009-05-04 01:46:30",855893,6.877,158.8,1.228,0.204,9.33,104.0671,9.69,10.79,60.7,0,110.1,13.41,10.47,120.8
"2009-05-04 01:47:00",855894,7.798,160.5,5.614,1.137,11.03,104.0486,9.64,10.88,60.65,0,110.1,13.38,10.42,122.5
"2009-05-04 01:47:30",855895,8.95,167.3,5.911,1.135,13.21,104.0421,9.62,10.95,60.89,0,110.1,13.37,10.41,129.3
"2009-05-04 01:48:00",855896,8.49,165.1,6.766,1.283,12.69,104.043,9.62,10.93,60.97,0,110.1,13.38,10.41,127.1